www.pogodaiklimat.ru

Погода и климат >> Архив погоды >> Швейцария >> Невшатель


ПОГОДА в Невшателе

  • Прогноз погоды в Невшателе
  • Монитор погоды в Невшателе

АРХИВ ПОГОДЫ в Невшателе

Время (UTC), дата Ветер
(напр.,м/с)
 
Видим.   Явления Облачность Т
(С)
Тd
(С)
f
(%)
Тe
(С)
Тes
(С)
Комфортность P
(гПа)
Po
(гПа)
Тmin
(С)
Tmax
(С)
R
(мм)
R24
(мм)
S
(см)
01 10.07 СВ 6
{11}
н/о н/о +16.7 +5.7 48 +16 +16 1016.1 960.2
02 10.07 В 5
{10}
н/о н/о +15.4 +6.2 54 +14 +14 1016.8 960.6
03 10.07 СВ 4
{11}
н/о н/о +14.3 +7.1 62 +13 +13 1017.2 960.7
04 10.07 СВ 4
{7}
н/о н/о +13.7 +6.6 62 +12 +12 1017.5 960.9
05 10.07 СВ 4
{8}
н/о н/о +14.0 +6.4 60 +13 +13 1017.8 961.2
06 10.07 В 4 н/о н/о +15.3 +7.4 59 +14 +14 1017.5 961.2 +13.6
07 10.07 СВ 6
{10}
н/о н/о +16.1 +6.1 51 +15 +15 1017.6 961.5
08 10.07 В 4
{10}
н/о н/о +17.7 +6.9 49 +17 +17 1017.5 961.7
09 10.07 В 5
{10}
н/о н/о +19.6 +8.1 47 +20 +20 1016.9 961.5
10 10.07 В 4
{9}
н/о н/о +21.0 +8.4 44 +23 +23 комфорт 1016.4 961.3
11 10.07 В 5
{9}
н/о н/о +21.8 +8.4 42 +23 +23 комфорт 1015.9 961.0
12 10.07 В 4
{10}
н/о н/о +23.1 +9.0 41 +25 +25 комфорт 1015.6 960.9
13 10.07 В 4
{8}
н/о н/о +23.1 +8.3 39 +24 +24 комфорт 1015.4 960.7
14 10.07 В 4
{8}
н/о н/о +24.1 +9.0 38 +25 +25 комфорт 1015.0 960.5
15 10.07 В 5
{8}
н/о н/о +24.7 +9.3 38 +25 +25 комфорт 1014.6 960.3
16 10.07 В 4
{8}
н/о н/о +24.5 +8.5 36 +25 +25 комфорт 1014.9 960.5
17 10.07 В 3
{6}
н/о н/о +23.5 +8.8 39 +24 +24 комфорт 1015.1 960.5
18 10.07 СВ 2
{8}
н/о н/о +21.8 +8.0 41 +23 +23 комфорт 1015.4 960.5 +25.2
19 10.07 С 3
{6}
н/о н/о +21.1 +5.9 37 +22 +22 комфорт 1015.7 960.6
20 10.07 С 2
{8}
н/о н/о +20.4 +1.6 29 +21 +21 комфорт 1016.1 960.9
21 10.07 В 1
{8}
н/о н/о +17.9 +3.3 38 +20 +20 1016.7 961.0
22 10.07 Ю 1
{2}
н/о н/о +18.3 +2.3 34 +19 +19 1016.7 961.0
23 10.07 С 1
{2}
н/о н/о +16.6 +5.2 47 +18 +18 1016.8 960.8
00 11.07 СВ 1
{8}
н/о н/о +16.4 +5.0 47 +18 +18 1016.3 960.3
01 11.07 СВ 1
{1}
н/о н/о +15.5 +5.6 52 +16 +16 1016.0 959.8
02 11.07
{1}
н/о н/о +14.8 +6.7 58 1015.8 959.5
03 11.07 СВ 1
{2}
н/о н/о +14.6 +7.1 61 +15 +15 1015.5 959.2
04 11.07 СВ 1
{2}
н/о н/о +14.2 +7.5 64 +15 +15 1015.6 959.2
05 11.07 СВ 1
{2}
н/о н/о +15.2 +9.6 69 +16 +16 1015.7 959.5
06 11.07 Ю 1 н/о н/о +15.4 +10.3 72 +17 +17 1015.7 959.5 +14.1
07 11.07 В 1
{2}
н/о н/о +16.1 +11.1 72 +18 +18 1015.6 959.6
08 11.07 В 2
{3}
н/о н/о +16.7 +11.4 71 +17 +17 1015.2 959.3
09 11.07 ЮВ 1
{3}
н/о н/о +18.0 +11.8 67 +19 +19 1015.2 959.6
10 11.07 Ю 1
{3}
н/о н/о +18.4 +11.6 65 +20 +20 1015.3 959.7
11 11.07 ЮВ 1
{3}
н/о н/о +19.6 +11.7 60 +22 +22 комфорт 1014.6 959.3
12 11.07 Ю 1
{3}
н/о н/о +19.8 +7.7 46 +22 +22 комфорт 1014.4 959.2
13 11.07 ЮЗ 1
{2}
н/о н/о +19.7 +8.0 47 +22 +22 комфорт 1014.3 959.0
14 11.07 ЮВ 1
{2}
н/о н/о +20.0 +10.1 53 +23 +23 комфорт 1014.3 959.1
15 11.07 В 2
{3}
н/о н/о +20.8 +11.6 56 +24 +24 комфорт 1014.3 959.3
16 11.07 В 2
{4}
н/о н/о +21.4 +12.2 56 +24 +24 комфорт 1014.0 959.1
17 11.07 В 1
{2}
н/о н/о +20.5 +10.3 52 +23 +23 комфорт 1014.4 959.3
18 11.07 В 1
{4}
н/о н/о +20.5 +10.4 52 +24 +24 комфорт 1014.6 959.5 +21.4
19 11.07 СЗ 1
{2}
н/о н/о +19.4 +11.3 59 +22 +22 комфорт 1014.8 959.5
20 11.07 С 1
{2}
н/о н/о +18.7 +9.9 57 +20 +20 1015.2 959.7
21 11.07 СВ 1
{2}
н/о н/о +18.1 +9.3 56 +20 +20 1015.5 959.9
22 11.07 С 1
{2}
н/о н/о +17.4 +9.3 59 +18 +18 1015.7 959.9
23 11.07 СЗ 1
{2}
н/о н/о +16.3 +9.2 63 +18 +18 1015.6 959.6
00 12.07 штиль 0
{2}
н/о н/о +15.7 +9.8 68 +16 +16 1015.5 959.4
01 12.07 Ю 1
{1}
н/о н/о +15.3 +9.9 70 +17 +17 1015.3 959.1
02 12.07 штиль 0
{1}
н/о н/о +14.7 +9.4 71 +14 +14 1015.4 959.1
03 12.07 штиль 0
{1}
н/о н/о +15.0 +9.5 70 +15 +15 1015.2 959.0
04 12.07 СВ 1
{1}
н/о н/о +15.1 +10.0 72 +16 +16 1015.3 959.1
05 12.07 З 1
{2}
н/о н/о +16.0 +10.6 70 +17 +17 1015.4 959.4
06 12.07 З 2
{3}
н/о н/о +17.9 +11.2 65 +19 +19 1014.8 959.2 +14.6
07 12.07 ЮЗ 1
{3}
н/о н/о +18.8 +11.6 63 +21 +21 комфорт 1014.9 959.4
08 12.07 З 2
{4}
н/о н/о +18.9 +12.7 67 +20 +20 1014.8 959.4
09 12.07 ЮЗ 4
{6}
н/о н/о +23.1 +14.2 57 +27 +27 душно 1013.5 958.9
10 12.07 ЮЗ 4
{8}
н/о н/о +23.5 +13.7 54 +26 +26 жарко 1013.2 958.7
11 12.07 ЮЗ 4
{9}
н/о н/о +23.4 +12.4 50 +26 +26 жарко 1013.1 958.6
12 12.07 ЮЗ 4
{9}
н/о н/о +24.0 +13.2 51 +26 +26 жарко 1012.8 958.4
13 12.07 ЮЗ 4
{7}
н/о н/о +25.4 +12.2 44 +27 +27 жарко 1011.8 957.8
14 12.07 З 5
{9}
н/о н/о +26.3 +10.9 38 +27 +27 жарко 1011.5 957.6
15 12.07 З 6
{13}
н/о н/о +25.8 +11.2 40 +27 +27 жарко 1011.4 957.5
16 12.07 З 6
{12}
н/о н/о +24.8 +11.2 42 +26 +26 жарко 1011.6 957.5
17 12.07 З 5
{11}
н/о н/о +26.0 +11.4 40 +27 +27 жарко 1011.4 957.5
18 12.07 З 4
{13}
н/о н/о +23.7 +10.6 44 +25 +25 комфорт 1012.5 958.1 +26.3
19 12.07 З 4
{6}
н/о н/о +23.1 +10.3 44 +25 +25 комфорт 1013.1 958.6
20 12.07 З 2
{6}
н/о н/о +22.3 +10.1 46 +24 +24 комфорт 1014.0 959.3
21 12.07 СЗ 2
{6}
н/о н/о +22.0 +8.8 43 +23 +23 комфорт 1014.2 959.4
22 12.07 З 2
{5}
н/о н/о +20.6 +9.4 49 +23 +23 комфорт 1014.8 959.7
23 12.07 З 3
{5}
н/о н/о +19.9 +9.3 50 +21 +21 комфорт 1015.0 959.7
00 13.07 СЗ 5
{11}
н/о н/о +20.1 +9.9 52 +21 +21 комфорт 1014.7 959.5
01 13.07 СЗ 7
{14}
н/о н/о +17.8 +11.8 68 +17 +17 1015.4 959.7 0.1
02 13.07 Ю 2
{10}
н/о н/о +18.6 +11.2 62 +20 +20 1015.4 959.9
03 13.07 Ю 1
{14}
н/о н/о +18.6 +10.1 58 +20 +20 1015.4 959.9
04 13.07 С 1
{7}
н/о н/о +17.5 +8.8 57 +19 +19 1016.2 960.4
05 13.07 З 1
{3}
н/о н/о +17.0 +9.3 60 +18 +18 1016.4 960.5
06 13.07 С 3
{14}
н/о н/о +18.1 +8.4 53 +18 +18 1017.0 961.3 +16.8
07 13.07 В 2
{5}
н/о н/о +18.1 +10.8 62 +19 +19 1017.4 961.7
08 13.07 ЮВ 3
{5}
н/о н/о +20.2 +12.5 61 +22 +22 комфорт 1017.2 961.9
09 13.07 ЮВ 2
{5}
н/о н/о +20.4 +11.5 57 +23 +23 комфорт 1017.1 961.8
10 13.07 ЮВ 3
{4}
н/о н/о +22.6 +12.3 52 +25 +25 комфорт 1016.3 961.5
11 13.07 В 3
{5}
н/о н/о +22.4 +9.1 43 +24 +24 комфорт 1016.1 961.3
12 13.07 С 4
{8}
н/о н/о +25.1 +8.0 34 +25 +25 комфорт 1015.6 961.3
13 13.07 С 3
{8}
н/о н/о +25.9 +7.3 31 +26 +26 жарко 1015.0 960.9
14 13.07
{8}
н/о н/о +25.3 +7.6 32 1015.1 960.9
15 13.07 С 4
{8}
н/о н/о +24.3 +8.1 36 +25 +25 комфорт 1015.1 960.7
16 13.07 С 5
{9}
н/о н/о +23.5 +8.1 37 +24 +24 комфорт 1015.2 960.6
17 13.07 С 6
{10}
н/о н/о +22.0 +8.4 42 +23 +23 комфорт 1015.4 960.5
18 13.07 С 6
{11}
н/о н/о +21.0 +8.1 43 +22 +22 комфорт 1015.7 960.6 +25.9
19 13.07 СЗ 7
{11}
н/о н/о +20.1 +8.3 47 +21 +21 комфорт 1016.1 960.8
20 13.07 С 8
{14}
н/о н/о +19.4 +9.0 51 +20 +20 1016.4 961.0
21 13.07 В 3
{14}
н/о н/о +18.8 +9.3 54 +20 +20 1017.0 961.4
22 13.07 С 3
{8}
н/о н/о +17.9 +8.6 54 +18 +18 1017.2 961.4
23 13.07 В 2
{7}
н/о н/о +16.9 +9.1 60 +17 +17 1016.9 961.0
00 14.07 СВ 2
{14}
н/о н/о +15.8 +9.0 64 +16 +16 1016.8 960.6
01 14.07 СВ 3
{5}
н/о н/о +16.5 +9.1 62 +16 +16 1016.3 960.3
02 14.07 СВ 4
{6}
н/о н/о +16.6 +8.8 60 +16 +16 1015.8 959.9
03 14.07 СВ 2
{6}
н/о н/о +16.5 +8.6 60 +17 +17 1015.4 959.5
04 14.07 В 2
{4}
н/о н/о +15.4 +8.8 65 +16 +16 1015.5 959.3
05 14.07 СВ 2
{3}
н/о н/о +16.0 +10.2 68 +16 +16 1015.2 959.2
06 14.07 В 2
{6}
н/о н/о +16.9 +11.2 69 +17 +17 1014.8 959.0 +15.1
07 14.07 В 4
{7}
н/о н/о +18.9 +11.2 61 +20 +20 1014.4 959.0
08 14.07 В 5
{9}
н/о н/о +20.5 +11.0 54 +22 +22 комфорт 1014.1 959.0
09 14.07 В 5
{9}
н/о н/о +21.3 +10.0 48 +23 +23 комфорт 1013.5 958.6
10 14.07 В 5
{8}
н/о н/о +23.8 +9.9 41 +25 +25 комфорт 1012.7 958.3
11 14.07 В 5
{9}
н/о н/о +24.1 +9.0 38 +25 +25 комфорт 1012.2 957.9
12 14.07 В 4
{9}
н/о н/о +24.5 +8.5 36 +25 +25 комфорт 1011.8 957.6
13 14.07 В 4
{8}
н/о н/о +25.9 +10.2 37 +27 +27 жарко 1010.9 957.0
14 14.07 В 4
{9}
н/о н/о +23.7 +8.7 38 +24 +24 комфорт 1010.9 956.6
15 14.07 В 3
{9}
н/о н/о +23.2 +8.7 40 +25 +25 комфорт 1010.7 956.3
16 14.07 С 10
{19}
н/о н/о +19.9 +11.8 60 +21 +21 комфорт 1011.3 956.2
17 14.07 С 13
{22}
н/о н/о +17.8 +10.4 62 +16 +16 1011.9 956.4
18 14.07 С 12
{23}
н/о н/о +15.5 +11.7 78 +13 +13 1013.1 957.1 +25.9 1
19 14.07 С 4
{20}
н/о н/о +16.6 +10.8 69 +16 +16 1013.7 957.9 0.3
20 14.07 СВ 3
{9}
н/о н/о +15.4 +11.2 76 +15 +15 1014.6 958.5
21 14.07 СВ 3
{20}
н/о н/о +15.2 +10.4 73 +15 +15 1015.0 958.8
22 14.07 В 2
{5}
н/о н/о +14.6 +11.5 82 +14 +14 1015.2 958.9
23 14.07 В 3
{5}
н/о н/о +14.6 +11.4 81 +14 +14 1015.3 959.0
00 15.07 В 3
{20}
н/о н/о +14.3 +11.1 81 +13 +13 1014.2 957.9
01 15.07 СВ 2
{7}
н/о н/о +13.6 +12.3 92 +13 +13 1014.7 958.2 0.2
02 15.07 ЮЗ 1
{3}
н/о н/о +13.8 +12.8 94 +15 +15 1014.1 957.7 0.3
03 15.07 СВ 1
{7}
н/о н/о +13.6 +12.8 95 +14 +14 1014.0 957.6 0.4
04 15.07 С 1
{2}
н/о н/о +13.8 +13.1 96 +15 +15 1014.1 957.7
05 15.07 СВ 1
{3}
н/о н/о +14.0 +12.3 89 +14 +14 1014.2 957.8 0.1
06 15.07 СВ 4
{7}
н/о н/о +15.3 +11.6 79 +14 +14 1013.8 957.7 +13.4
07 15.07 В 6
{10}
н/о н/о +17.4 +10.9 66 +17 +17 1013.8 958.1
08 15.07 В 4
{10}
н/о н/о +16.8 +10.6 67 +16 +16 1014.4 958.6
09 15.07 В 5
{10}
н/о н/о +17.2 +11.3 68 +17 +17 1014.7 958.9
10 15.07 В 7
{12}
н/о н/о +19.0 +11.8 63 +19 +19 1014.1 958.7
11 15.07 В 7
{10}
н/о н/о +18.3 +11.3 64 +18 +18 1014.6 959.1
12 15.07 В 5
{12}
н/о н/о +20.5 +11.5 56 +22 +22 комфорт 1014.2 959.1
13 15.07 СВ 5
{11}
н/о н/о +21.2 +10.0 49 +23 +23 комфорт 1013.8 958.9
14 15.07 СВ 4
{10}
н/о н/о +22.8 +10.9 47 +25 +25 комфорт 1013.8 959.2
15 15.07 В 4
{11}
н/о н/о +22.7 +10.4 46 +25 +25 комфорт 1013.8 959.1
16 15.07 В 4
{8}
н/о н/о +21.5 +10.6 50 +23 +23 комфорт 1013.9 959.0
17 15.07 В 3
{6}
н/о н/о +20.7 +11.9 57 +23 +23 комфорт 1014.1 959.0
18 15.07 СВ 2
{11}
н/о н/о +20.8 +10.7 52 +23 +23 комфорт 1014.3 959.3 +22.8
19 15.07 С 2
{5}
н/о н/о +19.1 +10.6 58 +21 +21 комфорт 1015.0 959.6
20 15.07 С 3
{7}
н/о н/о +18.8 +11.4 62 +20 +20 1015.5 960.0
21 15.07 В 1
{7}
н/о н/о +18.3 +11.4 64 +20 +20 1016.0 960.4
22 15.07 З 1
{2}
н/о н/о +17.5 +11.3 67 +19 +19 1016.5 960.7
23 15.07 СВ 2
{3}
н/о н/о +16.2 +11.0 71 +17 +17 1016.8 960.7
00 16.07 З 1
{7}
н/о н/о +16.1 +11.0 72 +18 +18 1016.8 960.7
01 16.07 штиль 0
{1}
н/о н/о +15.4 +11.4 77 +15 +15 1017.2 960.9
02 16.07 С 1
{1}
н/о н/о +14.4 +11.4 82 +15 +15 1017.4 960.9
03 16.07 СВ 1
{2}
н/о н/о +14.4 +11.4 82 +15 +15 1017.4 960.9
04 16.07 штиль 0
{3}
н/о н/о +14.2 +11.4 83 +14 +14 1017.4 960.9
05 16.07 СВ 1
{1}
н/о н/о +14.9 +12.5 86 +16 +16 1017.6 961.2
06 16.07 В 2
{3}
н/о н/о +16.4 +12.8 79 +17 +17 1017.3 961.2 +14.2
07 16.07 В 3
{6}
н/о н/о +18.4 +12.4 68 +19 +19 1017.0 961.3
08 16.07 В 3
{6}
н/о н/о +19.7 +12.3 62 +21 +21 комфорт 1016.8 961.4
09 16.07 ЮВ 3
{6}
н/о н/о +20.0 +12.5 62 +22 +22 комфорт 1016.5 961.2
10 16.07 ЮВ 2
{4}
н/о н/о +22.2 +12.7 55 +25 +25 комфорт 1015.9 961.0
11 16.07 ЮВ 2
{4}
н/о н/о +23.8 +13.5 52 +26 +26 жарко 1015.3 960.8
12 16.07 ЮВ 2
{6}
н/о н/о +24.8 +12.1 45 +26 +26 жарко 1014.6 960.3
13 16.07 Ю 2
{4}
н/о н/о +26.0 +10.8 39 +27 +27 жарко 1013.9 959.9
14 16.07 Ю 2
{3}
н/о н/о +26.6 +11.1 38 +28 +28 жарко 1013.5 959.6
15 16.07 Ю 2
{4}
н/о н/о +26.2 +10.8 38 +27 +27 жарко 1013.4 959.4
17 16.07 Ю 1
{3}
н/о н/о +25.9 +10.0 37 +27 +27 жарко 1012.9 958.9
18 16.07 С 2
{4}
н/о н/о +25.0 +10.6 40 +26 +26 жарко 1013.2 959.0 +27.5
19 16.07 С 5
{9}
н/о н/о +24.0 +6.6 33 +24 +24 комфорт 1013.5 959.1
20 16.07 С 7
{12}
н/о н/о +23.2 +7.4 36 +24 +24 комфорт 1013.9 959.3
21 16.07 С 4
{12}
н/о н/о +22.6 +7.3 37 +23 +23 комфорт 1014.1 959.4
22 16.07 З 1
{5}
н/о н/о +20.2 +9.1 49 +23 +23 комфорт 1015.0 959.8
23 16.07 штиль 0
{2}
н/о н/о +19.0 +8.6 51 +20 +20 1015.2 959.8
00 17.07 СВ 1
{12}
н/о н/о +17.9 +8.3 53 +20 +20 1015.5 959.8

 

Местоположение метеостанции Невшатель (Швейцария): широта 47.00 долгота 6.95 высота над уровнем моря 487 м.

В архиве по умолчанию представлена погода в Невшателе за последнюю неделю. Архивные данные за месяц целиком и за предыдущие месяцы, начиная с января 2011 года, Вы можете получить, выбрав интересующий диапазон дат из раскрывающегося списка и нажав кнопку "Ввод!".


*Определитесь, кто Вы:
робот инопланетянин человек

Внимание! Время в таблицах - всемирное. Для получения местного времени необходимо прибавить поправку, которая равна 1 ч.

Смотрите также архив погоды в соседних городах и на ближайших метеорологических станциях:

Погода в Кресье (Швейцария) (11 км)
Погода Ла-Шо-де-Фон (Швейцария) (14 км)
Погода на Шасрале (Швейцария) (17 км)
Погода в Пейерне (Швейцария) (20 км)
Погода в Ла Бревине (Швейцария) (25 км)
Погода в Мюлеберге (Швейцария) (25 км)
Погода на Ла-Фрета (Швейцария) (34 км)
Погода в Берне (Швейцария) (37 км)
Погода в Плаффайен-Обершроте (Швейцария) (37 км)
Погода во Фрибург-Позиойксе (Швейцария) (39 км)

Пояснения к столбцам:

Ветер - указаны скорость ветра в м/с - средняя за 10 мин, порывы в срок и между сроками (в фигурных скобках) и направление, откуда дует ветер: С - северный, СВ - северо-восточный, В - восточный, ЮВ - юго-восточный, Ю - южный, ЮЗ - юго-западный, З - западный, СЗ - северо-западный.
Видимость - горизонтальная дальность видимости в метрах или километрах. При видимости от 1 до 10 км при отсутствии осадков обычно наблюдается дымка, при ухудшении видимости до 1 км и менее - туман. В сухую погоду видимость может ухудшаться дымом, пылью или мглою.
Явления - указаны атмосферные явления, наблюдавшиеся в срок или в последний час перед сроком; фигурными скобками обозначены явления, наблюдавшиеся между сроками (за 1-3 часа до срока); квадратными скобками обозначены град или гололедные отложения с указанием их диаметра в мм.
Облачность - указаны через наклонную черту общая и нижняя облачность в баллах и высота нижней границы облаков в метрах; квадратными скобками обозначены формы облаков: Ci - перистые, Cs - перисто-слоистые, Cc - перисто-кучевые, Ac - высококучевые, As - высокослоистые, Sc - слоисто-кучевые, Ns - слоисто-дождевые, Cu - кучевые, Cb - кучево-дождевые. Подробнее классификацию облаков см. в Атласе облаков (PDF).
T - Температура воздуха - температура, измеренная на высоте 2 м над землей.
Td - Температура точки росы - температура, при понижении до которой содержащийся в воздухе водяной пар достигнет насыщения.
f - Относительная влажность воздуха - влажноcть воздуха, измеренная на высоте 2 м над землей.
Te - Эффективная температура - температура, которую ощущает одетый по сезону человек в тени. Характеристика душности погоды. При расчете учитывается влияние влажности воздуха и скорости ветра на теплоощущения человека.
Tes - Эффективная температура на солнце - температура, которую ощущает человек, с поправкой на солнечный нагрев. Характеристика знойности погоды. Зависит от высоты солнца над горизонтом, облачности и скорости ветра. Ночью, в пасмурную погоду, а также при ветре 12 м/с и более поправка равна нулю.
P - Атмосферное давление - приведенное к уровню моря атмосферное давление.
Po - Атмосферное давление - измеренное на уровне метеостанции атмосферное давление.
Tmin - Минимальная температура - минимум температуры воздуха на высоте 2 м над землей.
Tmax - Максимальная температура - максимум температуры воздуха на высоте 2 м над землей.
R - Количество осадков - Количество выпавших осадков за период времени, мм. При наведении курсора мыши на число - период времени, за который выпало указанное количество осадков.
R24 - Количество осадков - Количество выпавших осадков за 24 часа, мм.
S - Снежный покров - Высота снежного покрова, см. При наведении курсора мыши на число - состояние снежного покрова и степень покрытия местности в баллах.